Date,TemperatureHighF,TemperatureAvgF,TemperatureLowF,DewpointHighF,DewpointAvgF,DewpointLowF,HumidityHigh,HumidityAvg,HumidityLow,PressureMaxIn,PressureMinIn,WindSpeedMaxMPH,WindSpeedAvgMPH,GustSpeedMaxMPH,PrecipitationSumIn
2013-1-3,45.9,35.5,0.0,37.8,28.5,0.0,94,69,52,30.08,29.88,11,4,13,0.00
2013-1-4,46.3,34.3,26.7,26.6,21.6,13.7,91,62,30,30.15,30.03,15,5,17,0.00
2013-1-5,48.6,37.0,26.1,35.0,25.2,20.9,91,64,35,30.17,30.00,13,4,20,0.01
2013-1-6,53.6,42.3,37.3,40.2,34.3,28.1,92,75,39,30.00,29.81,15,4,22,0.00
2013-1-7,52.0,37.1,27.6,29.4,27.1,24.8,90,70,36,30.17,29.96,10,2,14,0.00
2013-1-8,53.0,37.7,24.8,44.2,33.5,23.1,95,85,66,30.24,30.12,6,1,8,0.00
2013-1-9,55.5,49.0,44.4,52.5,47.7,42.7,100,95,88,30.24,30.15,3,0,4,0.00
2013-1-10,63.3,52.7,44.5,55.1,49.0,43.7,99,88,65,30.24,30.03,20,2,22,0.05
2013-1-11,59.5,56.6,54.0,59.2,55.8,52.9,99,97,94,30.04,29.86,10,3,18,0.54
2013-1-12,69.2,61.9,58.8,63.5,59.6,55.4,100,93,66,29.93,29.82,11,2,11,0.06
2013-1-13,64.3,60.9,59.0,59.8,58.0,56.1,97,90,81,29.86,29.77,13,4,16,0.17
2013-1-14,62.6,60.3,54.2,61.4,59.3,52.9,98,96,94,29.85,29.76,13,4,17,1.07
2013-1-15,57.7,55.3,53.1,57.1,54.8,52.9,100,98,96,29.84,29.72,10,2,11,1.43
2013-1-16,54.8,53.5,52.9,54.2,52.9,52.3,99,98,97,29.72,29.67,6,4,9,0.21
2013-1-17,50.6,50.3,48.6,49.5,48.9,46.1,96,95,91,29.48,29.41,16,5,21,1.37
2013-1-18,51.5,39.9,28.0,32.7,27.7,20.6,97,66,34,30.27,30.16,8,2,10,0.00
2013-1-19,51.8,34.8,25.3,33.7,28.5,24.6,98,81,39,30.25,30.02,13,2,15,0.00
2013-1-20,58.8,40.4,26.9,38.2,29.6,25.9,97,70,30,30.02,29.86,12,2,16,0.00
2013-1-21,53.2,37.8,26.7,32.5,24.3,15.3,95,63,32,29.91,29.78,18,4,21,0.00
2013-1-22,39.6,30.8,23.9,15.3,9.6,3.0,51,41,24,30.05,29.84,22,8,27,0.00
2013-1-23,47.7,35.4,25.1,30.3,20.7,8.6,82,55,42,30.13,29.90,12,3,20,0.00
2013-1-24,46.6,37.9,27.5,32.2,16.8,-4.6,88,49,12,30.20,29.83,24,4,24,0.00
2013-1-25,37.2,28.0,22.6,37.0,20.1,6.0,99,75,44,30.21,29.92,10,3,11,0.00
2013-1-26,52.3,38.6,27.7,37.3,31.1,23.1,99,77,37,30.12,29.93,10,1,14,0.20
2013-1-27,47.2,35.9,24.5,35.7,30.1,23.5,97,81,61,30.30,30.12,11,3,14,0.01
2013-1-28,56.2,44.6,37.3,52.3,41.2,31.2,98,88,73,30.25,30.05,11,2,11,0.00
2013-1-29,59.9,49.9,38.8,58.8,48.9,38.5,99,97,91,30.07,29.75,16,2,22,0.16
2013-1-30,61.7,55.3,43.9,60.8,54.1,42.8,99,96,92,29.75,29.24,21,9,30,1.86
2013-1-31,43.9,39.7,30.6,42.8,29.0,19.7,96,68,40,29.86,29.38,17,6,23,0.00
2013-2-1,41.2,39.0,34.4,30.6,27.0,24.5,75,62,56,29.84,29.78,15,4,22,0.00
2013-2-4,47.4,40.8,34.1,30.0,27.5,22.8,84,61,38,29.92,29.79,10,2,12,0.00
2013-2-5,55.3,39.2,29.0,42.8,33.0,27.1,95,80,46,29.83,29.73,11,1,15,0.00
2013-2-6,61.6,41.3,28.3,38.4,30.1,22.6,98,71,24,29.97,29.82,8,1,10,0.00
2013-2-7,46.2,40.5,32.4,43.9,37.5,29.5,98,89,74,29.99,29.74,10,1,12,0.20
2013-2-8,51.1,44.1,36.0,47.3,38.6,28.2,99,83,51,29.90,29.69,21,4,23,0.01
2013-2-9,59.4,41.5,28.3,30.4,25.8,14.2,87,59,18,30.09,29.88,11,3,14,0.00
2013-2-10,50.2,43.2,32.8,48.3,34.0,25.5,99,72,39,30.14,29.91,14,2,21,1.00
2013-2-11,57.4,49.9,41.5,54.1,44.0,34.4,97,82,48,29.92,29.77,13,2,17,0.14
2013-2-12,55.0,46.1,40.9,43.5,32.5,21.4,96,62,28,29.86,29.64,16,4,19,0.12
2013-2-13,48.8,42.0,35.1,43.6,37.7,30.8,96,85,69,29.69,29.45,15,4,22,0.02
2013-2-14,54.6,40.2,31.5,34.5,29.7,25.8,88,69,35,29.83,29.69,13,5,20,0.00